| time (UTC) | temp F | wind direction | speed knots | gust knots | rain 1hr in | rain 24hr in | rain mn in | humidity % | barometer mb |
| 20260903172415 | 88 | 165 | 4.3 | 6.1 | 0.00 | 0.00 | 0.00 | ||
| 20260903171911 | 89 | 148 | 6.1 | 6.1 | 0.00 | 0.00 | 0.00 | ||
| 20260903171410 | 89 | 148 | 8.7 | 6.1 | 0.00 | 0.00 | 0.00 | ||
| 20260903170906 | 88 | 141 | 7.0 | 6.1 | 0.00 | 0.00 | 0.00 | ||
| 20260903170407 | 89 | 149 | 6.1 | 7.8 | 0.00 | 0.00 | 0.00 | ||
| 20260903165904 | 89 | 82 | 4.3 | 5.2 | 0.00 | 0.00 | 0.00 | ||
| 20260903165405 | 87 | 107 | 7.0 | 7.0 | 0.00 | 0.00 | 0.00 | ||
| 20260903164405 | 88 | 96 | 3.5 | 2.6 | 0.00 | 0.00 | 0.00 | ||
| 20260903163902 | 88 | 131 | 3.5 | 6.1 | 0.00 | 0.00 | 0.00 | ||
| 20260903162357 | 89 | 110 | 4.3 | 3.5 | 0.00 | 0.00 | 0.00 | ||
| 20260903161855 | 89 | 136 | 3.5 | 6.1 | 0.00 | 0.00 | 0.00 | ||
| 20260903161357 | 89 | 121 | 3.5 | 5.2 | 0.00 | 0.00 | 0.00 | ||
| 20260903160852 | 89 | 160 | 0.9 | 2.6 | 0.00 | 0.00 | 0.00 | ||
| 20260903155850 | 89 | 134 | 3.5 | 4.3 | 0.00 | 0.00 | 0.00 | ||
| 20260903155351 | 88 | 152 | 3.5 | 3.5 | 0.00 | 0.00 | 0.00 | ||
| 20260903154848 | 88 | 152 | 0.9 | 1.7 | 0.00 | 0.00 | 0.00 | ||
| 20260903154349 | 88 | 153 | 5.2 | 2.6 | 0.00 | 0.00 | 0.00 | ||
| 20260903153845 | 89 | 139 | 3.5 | 5.2 | 0.00 | 0.00 | 0.00 | ||
| 20260903153346 | 88 | 100 | 1.7 | 2.6 | 0.00 | 0.00 | 0.00 | ||
| 20260903152844 | 87 | 131 | 1.7 | 0.0 | 0.00 | 0.00 | 0.00 | ||
| 20260903152345 | 87 | 104 | 2.6 | 2.6 | 0.00 | 0.00 | 0.00 | ||
| 20260903151843 | 88 | 129 | 2.6 | 4.3 | 0.00 | 0.00 | 0.00 | ||
| 20260903151344 | 88 | 138 | 3.5 | 4.3 | 0.00 | 0.00 | 0.00 | ||
| 20260903150842 | 87 | 134 | 7.0 | 5.2 | 0.00 | 0.00 | 0.00 | ||
| 20260903150346 | 87 | 143 | 2.6 | 2.6 | 0.00 | 0.00 | 0.00 | ||
| 20260903145841 | 87 | 73 | 0.9 | 0.9 | 0.00 | 0.00 | 0.00 | ||
| 20260903145557 | 83 | 52 | 0.0 | 0.0 | 0.00 | 0.00 | 0.00 | ||
| 20260903145555 | 83 | 52 | 0.0 | 0.0 | 0.00 | 0.00 | 0.00 | ||
| 20260903145441 | 83 | 52 | 0.0 | 0.0 | 0.00 | 0.00 | 0.00 | ||
| 20260903145439 | 83 | 52 | 0.0 | 0.0 | 0.00 | 0.00 | 0.00 | ||
| 20260903144837 | 86 | 89 | 3.5 | 1.7 | 0.00 | 0.00 | 0.00 | ||
| 20260903144337 | 87 | 82 | 0.0 | 0.9 | 0.00 | 0.00 | 0.00 | ||
| 20260903143832 | 86 | 156 | 1.7 | 2.6 | 0.00 | 0.00 | 0.00 | ||
| 20260903143333 | 86 | 63 | 1.7 | 2.6 | 0.00 | 0.00 | 0.00 | ||
| 20260903142831 | 85 | 115 | 1.7 | 0.9 | 0.00 | 0.00 | 0.00 | ||
| 20260903141829 | 85 | 89 | 0.9 | 1.7 | 0.00 | 0.00 | 0.00 | ||
| 20260903140826 | 83 | 105 | 0.9 | 0.9 | 0.00 | 0.00 | 0.00 | ||
| 20260903140326 | 84 | 56 | 0.0 | 0.0 | 0.00 | 0.00 | 0.00 | ||
| 20260903135821 | 84 | 60 | 0.9 | 0.9 | 0.00 | 0.00 | 0.00 | ||
| 20260903134820 | 83 | 52 | 0.0 | 0.0 | 0.00 | 0.00 | 0.00 | ||
| 20260903134409 | 83 | 52 | 0.0 | 0.0 | 0.00 | 0.00 | 0.00 | ||
| 20260903134321 | 83 | 52 | 0.0 | 0.0 | 0.00 | 0.00 | 0.00 | ||
| 20260903130626 | 81 | 70 | 1.7 | 1.7 | 0.00 | 0.00 | 0.00 | ||
| 20260903130552 | 81 | 70 | 1.7 | 1.7 | 0.00 | 0.00 | 0.00 | ||
| 20260903130514 | 81 | 70 | 1.7 | 1.7 | 0.00 | 0.00 | 0.00 | ||
| 20260903130315 | 81 | 70 | 1.7 | 1.7 | 0.00 | 0.00 | 0.00 | ||
| 20260903125933 | 81 | 69 | 0.9 | 1.7 | 0.00 | 0.00 | 0.00 | ||
| 20260903125809 | 81 | 69 | 0.9 | 1.7 | 0.00 | 0.00 | 0.00 | ||
| 20260903124712 | 78 | 46 | 0.0 | 0.0 | 0.00 | 0.00 | 0.00 | ||
| 20260903124617 | 78 | 46 | 0.0 | 0.0 | 0.00 | 0.00 | 0.00 | ||
| 20260903124545 | 78 | 46 | 0.0 | 0.0 | 0.00 | 0.00 | 0.00 | ||
| 20260903124309 | 80 | 51 | 0.0 | 0.0 | 0.00 | 0.00 | 0.00 | ||
| 20260903124011 | 80 | 46 | 0.0 | 0.0 | 0.00 | 0.00 | 0.00 | ||
| 20260903123945 | 80 | 46 | 0.0 | 0.0 | 0.00 | 0.00 | 0.00 | ||
| 20260903123932 | 80 | 46 | 0.0 | 0.0 | 0.00 | 0.00 | 0.00 | ||
| 20260903123851 | 80 | 46 | 0.0 | 0.0 | 0.00 | 0.00 | 0.00 | ||
| 20260903123808 | 80 | 46 | 0.0 | 0.0 | 0.00 | 0.00 | 0.00 | ||
| 20260903123308 | 80 | 46 | 0.0 | 0.0 | 0.00 | 0.00 | 0.00 | ||
| 20260903123044 | 79 | 46 | 0.0 | 0.0 | 0.00 | 0.00 | 0.00 | ||
| 20260903123012 | 79 | 46 | 0.0 | 0.0 | 0.00 | 0.00 | 0.00 | ||
| 20260903122803 | 79 | 46 | 0.0 | 0.0 | 0.00 | 0.00 | 0.00 | ||
| 20260903121303 | 78 | 46 | 0.0 | 0.0 | 0.00 | 0.00 | 0.00 | ||
| 20260903121011 | 78 | 46 | 0.0 | 0.0 | 0.00 | 0.00 | 0.00 | ||
| 20260903120759 | 78 | 46 | 0.0 | 0.0 | 0.00 | 0.00 | 0.00 | ||
| 20260903120527 | 76 | 46 | 0.0 | 0.0 | 0.00 | 0.00 | 0.00 | ||
| 20260903120247 | 76 | 46 | 0.0 | 0.0 | 0.00 | 0.00 | 0.00 | ||
| 20260903114748 | 77 | 46 | 0.0 | 0.0 | 0.00 | 0.00 | 0.00 | ||
| 20260903113825 | 76 | 46 | 0.0 | 0.0 | 0.00 | 0.00 | 0.00 | ||
| 20260903113743 | 76 | 46 | 0.0 | 0.0 | 0.00 | 0.00 | 0.00 | ||
| 20260903113319 | 76 | 46 | 0.0 | 0.0 | 0.00 | 0.00 | 0.00 | ||
| 20260903113244 | 76 | 46 | 0.0 | 0.0 | 0.00 | 0.00 | 0.00 | ||
| 20260903113148 | 76 | 46 | 0.0 | 0.0 | 0.00 | 0.00 | 0.00 | ||
| 20260903113111 | 76 | 46 | 0.0 | 0.0 | 0.00 | 0.00 | 0.00 | ||
| 20260903112741 | 76 | 46 | 0.0 | 0.0 | 0.00 | 0.00 | 0.00 | ||
| 20260903112258 | 75 | 46 | 0.0 | 0.0 | 0.00 | 0.00 | 0.00 | ||
| 20260903111832 | 75 | 46 | 0.0 | 0.0 | 0.00 | 0.00 | 0.00 | ||
| 20260903111741 | 75 | 46 | 0.0 | 0.0 | 0.00 | 0.00 | 0.00 | ||
| 20260903111317 | 76 | 46 | 0.0 | 0.0 | 0.00 | 0.00 | 0.00 | ||
| 20260903111242 | 76 | 46 | 0.0 | 0.0 | 0.00 | 0.00 | 0.00 | ||
| 20260903093212 | 76 | 46 | 0.0 | 0.0 | 0.00 | 0.00 | 0.00 | ||
| 20260903092250 | 76 | 46 | 0.0 | 0.0 | 0.00 | 0.00 | 0.00 | ||
| 20260903092212 | 76 | 46 | 0.0 | 0.0 | 0.00 | 0.00 | 0.00 | ||
| 20260903084154 | 76 | 46 | 0.0 | 0.0 | 0.00 | 0.00 | 0.00 | ||
| 20260903083732 | 76 | 46 | 0.0 | 0.0 | 0.00 | 0.00 | 0.00 | ||
| 20260903083647 | 76 | 46 | 0.0 | 0.0 | 0.00 | 0.00 | 0.00 | ||
| 20260903080643 | 76 | 46 | 0.0 | 0.0 | 0.00 | 0.00 | 0.00 | ||
| 20260903080136 | 76 | 46 | 0.0 | 0.0 | 0.00 | 0.00 | 0.00 | ||
| 20260903075259 | 76 | 46 | 0.0 | 0.0 | 0.00 | 0.00 | 0.00 | ||
| 20260903075228 | 76 | 46 | 0.0 | 0.0 | 0.00 | 0.00 | 0.00 | ||
| 20260903075219 | 76 | 46 | 0.0 | 0.0 | 0.00 | 0.00 | 0.00 | ||
| 20260903075136 | 76 | 46 | 0.0 | 0.0 | 0.00 | 0.00 | 0.00 | ||
| 20260903075112 | 76 | 46 | 0.0 | 0.0 | 0.00 | 0.00 | 0.00 | ||
| 20260903075040 | 76 | 46 | 0.0 | 0.0 | 0.00 | 0.00 | 0.00 | ||
| 20260903074631 | 76 | 46 | 0.0 | 0.0 | 0.00 | 0.00 | 0.00 | ||
| 20260903071618 | 76 | 46 | 0.0 | 0.0 | 0.00 | 0.00 | 0.00 | ||
| 20260903070806 | 76 | 46 | 0.0 | 0.0 | 0.00 | 0.00 | 0.00 | ||
| 20260903070613 | 76 | 46 | 0.0 | 0.0 | 0.00 | 0.00 | 0.00 | ||
| 20260903065119 | 76 | 46 | 0.0 | 0.0 | 0.00 | 0.00 | 0.00 | ||
| 20260903064651 | 77 | 46 | 0.0 | 0.0 | 0.00 | 0.00 | 0.00 | ||
| 20260903064608 | 77 | 46 | 0.0 | 0.0 | 0.00 | 0.00 | 0.00 | ||
| 20260903064140 | 76 | 46 | 0.0 | 0.0 | 0.00 | 0.00 | 0.00 | ||
| 20260903064108 | 76 | 46 | 0.0 | 0.0 | 0.00 | 0.00 | 0.00 | ||
| 20260903052821 | 76 | 46 | 0.0 | 0.0 | 0.00 | 0.00 | 0.00 | ||
| 20260903052748 | 76 | 46 | 0.0 | 0.0 | 0.00 | 0.00 | 0.00 | ||
| 20260903052746 | 76 | 46 | 0.0 | 0.0 | 0.00 | 0.00 | 0.00 | ||
| 20260903051115 | 76 | 46 | 0.0 | 0.0 | 0.00 | 0.00 | 0.00 | ||
| 20260903051043 | 76 | 46 | 0.0 | 0.0 | 0.00 | 0.00 | 0.00 | ||
| 20260903050539 | 76 | 46 | 0.0 | 0.0 | 0.00 | 0.00 | 0.00 | ||
| 20260903045537 | 77 | 46 | 0.0 | 0.0 | 0.00 | 0.00 | 0.00 | ||
| 20260903045037 | 77 | 46 | 0.0 | 0.0 | 0.00 | 0.00 | 0.00 | ||
| 20260903044614 | 77 | 46 | 0.0 | 0.0 | 0.00 | 0.00 | 0.00 | ||
| 20260903044611 | 77 | 46 | 0.0 | 0.0 | 0.00 | 0.00 | 0.00 | ||
| 20260903044536 | 77 | 46 | 0.0 | 0.0 | 0.00 | 0.00 | 0.00 | ||
| 20260903044533 | 77 | 46 | 0.0 | 0.0 | 0.00 | 0.00 | 0.00 | ||
| 20260903044033 | 77 | 46 | 0.0 | 0.0 | 0.00 | 0.00 | 0.00 | ||
| 20260903043530 | 77 | 46 | 0.0 | 0.0 | 0.00 | 0.00 | 0.00 | ||
| 20260903042914 | 77 | 46 | 0.0 | 0.0 | 0.00 | 0.00 | 0.00 | ||
| 20260903042600 | 77 | 46 | 0.0 | 0.0 | 0.00 | 0.00 | 0.00 | ||
| 20260903042528 | 77 | 46 | 0.0 | 0.0 | 0.00 | 0.00 | 0.00 | ||
| 20260903042028 | 77 | 46 | 0.0 | 0.0 | 0.00 | 0.00 | 0.00 | ||
| 20260903041524 | 77 | 46 | 0.0 | 0.0 | 0.00 | 0.00 | 0.00 | ||
| 20260903041025 | 77 | 46 | 0.0 | 0.0 | 0.00 | 0.00 | 0.00 | ||
| 20260903040735 | 77 | 65 | 0.9 | 0.9 | 0.00 | 0.00 | 0.00 | ||
| 20260903040517 | 77 | 65 | 0.9 | 0.9 | 0.00 | 0.00 | 0.00 | ||
| 20260903040018 | 77 | 75 | 1.7 | 0.9 | 0.00 | 0.00 | 0.00 | ||
| 20260903035007 | 78 | 83 | 0.0 | 0.0 | 0.00 | 0.00 | 0.00 | ||
| 20260903034503 | 77 | 83 | 0.0 | 0.0 | 0.00 | 0.00 | 0.00 | ||
| 20260903034003 | 77 | 83 | 0.0 | 0.0 | 0.00 | 0.00 | 0.00 | ||
| 20260903032959 | 77 | 83 | 0.0 | 0.0 | 0.00 | 0.00 | 0.00 | ||
| 20260903032455 | 77 | 83 | 0.0 | 0.0 | 0.00 | 0.00 | 0.00 | ||
| 20260903031955 | 77 | 83 | 0.0 | 0.0 | 0.00 | 0.00 | 0.00 | ||
| 20260903031525 | 78 | 83 | 0.0 | 0.0 | 0.00 | 0.00 | 0.00 | ||
| 20260903031452 | 78 | 83 | 0.0 | 0.0 | 0.00 | 0.00 | 0.00 | ||
| 20260903030953 | 77 | 83 | 0.0 | 0.0 | 0.00 | 0.00 | 0.00 | ||
| 20260903030449 | 78 | 83 | 0.0 | 0.0 | 0.00 | 0.00 | 0.00 | ||
| 20260903030038 | 78 | 83 | 0.0 | 0.0 | 0.00 | 0.00 | 0.00 | ||
| 20260903025950 | 78 | 83 | 0.0 | 0.0 | 0.00 | 0.00 | 0.00 | ||
| 20260903025702 | 78 | 83 | 0.0 | 0.0 | 0.00 | 0.00 | 0.00 | ||
| 20260903025447 | 78 | 83 | 0.0 | 0.0 | 0.00 | 0.00 | 0.00 | ||
| 20260903024948 | 78 | 83 | 0.0 | 0.0 | 0.00 | 0.00 | 0.00 | ||
| 20260903024835 | 78 | 83 | 0.0 | 0.0 | 0.00 | 0.00 | 0.00 | ||
| 20260903024445 | 78 | 83 | 0.0 | 0.0 | 0.00 | 0.00 | 0.00 | ||
| 20260903023945 | 78 | 83 | 0.0 | 0.0 | 0.00 | 0.00 | 0.00 | ||
| 20260903023441 | 79 | 83 | 0.0 | 0.0 | 0.00 | 0.00 | 0.00 | ||
| 20260903022942 | 78 | 83 | 0.0 | 0.0 | 0.00 | 0.00 | 0.00 | ||
| 20260903022437 | 79 | 83 | 0.0 | 0.0 | 0.00 | 0.00 | 0.00 | ||
| 20260903021938 | 79 | 83 | 0.0 | 0.0 | 0.00 | 0.00 | 0.00 | ||
| 20260903021433 | 79 | 83 | 0.0 | 0.0 | 0.00 | 0.00 | 0.00 | ||
| 20260903020933 | 79 | 83 | 0.0 | 0.0 | 0.00 | 0.00 | 0.00 | ||
| 20260903020431 | 79 | 83 | 0.0 | 0.0 | 0.00 | 0.00 | 0.00 | ||
| 20260903015929 | 79 | 83 | 0.0 | 0.0 | 0.00 | 0.00 | 0.00 | ||
| 20260903015427 | 79 | 83 | 0.0 | 0.0 | 0.00 | 0.00 | 0.00 | ||
| 20260903014926 | 79 | 83 | 0.0 | 0.0 | 0.00 | 0.00 | 0.00 | ||
| 20260903014422 | 80 | 83 | 0.0 | 0.0 | 0.00 | 0.00 | 0.00 | ||
| 20260903013922 | 79 | 83 | 0.0 | 0.0 | 0.00 | 0.00 | 0.00 | ||
| 20260903013418 | 80 | 83 | 0.0 | 0.0 | 0.00 | 0.00 | 0.00 | ||
| 20260903012413 | 80 | 83 | 0.0 | 0.0 | 0.00 | 0.00 | 0.00 | ||
| 20260903011914 | 80 | 83 | 0.0 | 0.0 | 0.00 | 0.00 | 0.00 | ||
| 20260903011411 | 80 | 83 | 0.0 | 0.0 | 0.00 | 0.00 | 0.00 | ||
| 20260903011108 | 81 | 83 | 0.0 | 0.0 | 0.00 | 0.00 | 0.00 | ||
| 20260903010909 | 81 | 83 | 0.0 | 0.0 | 0.00 | 0.00 | 0.00 | ||
| 20260903010441 | 81 | 83 | 0.0 | 0.0 | 0.00 | 0.00 | 0.00 | ||
| 20260903010405 | 81 | 83 | 0.0 | 0.0 | 0.00 | 0.00 | 0.00 | ||
| 20260903010052 | 80 | 83 | 0.0 | 0.0 | 0.00 | 0.00 | 0.00 | ||
| 20260903005905 | 80 | 83 | 0.0 | 0.0 | 0.00 | 0.00 | 0.00 | ||
| 20260903005402 | 81 | 83 | 0.0 | 0.0 | 0.00 | 0.00 | 0.00 | ||
| 20260903004902 | 81 | 83 | 0.0 | 0.0 | 0.00 | 0.00 | 0.00 | ||
| 20260903004358 | 80 | 83 | 0.0 | 0.0 | 0.00 | 0.00 | 0.00 | ||
| 20260903003857 | 81 | 83 | 0.0 | 0.0 | 0.00 | 0.00 | 0.00 | ||
| 20260903003355 | 82 | 83 | 0.0 | 0.0 | 0.00 | 0.00 | 0.00 | ||
| 20260903002855 | 82 | 83 | 0.0 | 0.0 | 0.00 | 0.00 | 0.00 | ||
| 20260903002352 | 82 | 83 | 0.0 | 0.0 | 0.00 | 0.00 | 0.00 | ||
| 20260903001852 | 82 | 83 | 0.0 | 0.0 | 0.00 | 0.00 | 0.00 | ||
| 20260903001350 | 82 | 83 | 0.0 | 0.0 | 0.00 | 0.00 | 0.00 | ||
| 20260903000850 | 83 | 83 | 0.0 | 0.0 | 0.00 | 0.00 | 0.00 | ||
| 20260903000347 | 83 | 83 | 0.0 | 0.0 | 0.00 | 0.00 | 0.00 | ||
| 20260902235853 | 83 | 83 | 0.0 | 0.0 | 0.00 | 0.00 | 0.00 | ||
| 20260902235345 | 83 | 83 | 0.0 | 0.0 | 0.00 | 0.00 | 0.00 | ||
| 20260902234846 | 84 | 83 | 0.0 | 0.0 | 0.00 | 0.00 | 0.00 | ||
| 20260902234341 | 85 | 83 | 0.0 | 0.0 | 0.00 | 0.00 | 0.00 | ||
| 20260902233841 | 85 | 63 | 0.0 | 0.0 | 0.00 | 0.00 | 0.00 | ||
| 20260902233335 | 85 | 51 | 0.0 | 0.0 | 0.00 | 0.00 | 0.00 | ||
| 20260902232836 | 85 | 79 | 1.7 | 1.7 | 0.00 | 0.00 | 0.00 | ||
| 20260902232332 | 85 | 63 | 0.9 | 0.9 | 0.00 | 0.00 | 0.00 | ||
| 20260902231833 | 85 | 38 | 0.0 | 0.0 | 0.00 | 0.00 | 0.00 | ||
| 20260902231331 | 85 | 62 | 0.0 | 0.9 | 0.00 | 0.00 | 0.00 | ||
| 20260902230832 | 86 | 53 | 0.0 | 0.0 | 0.00 | 0.00 | 0.00 | ||
| 20260902230328 | 86 | 58 | 0.0 | 0.0 | 0.00 | 0.00 | 0.00 | ||
| 20260902225829 | 87 | 58 | 0.0 | 0.0 | 0.00 | 0.00 | 0.00 | ||
| 20260902225326 | 87 | 63 | 0.0 | 0.0 | 0.00 | 0.00 | 0.00 | ||
| 20260902224826 | 87 | 72 | 0.9 | 0.9 | 0.00 | 0.00 | 0.00 | ||
| 20260902224324 | 87 | 73 | 1.7 | 0.9 | 0.00 | 0.00 | 0.00 | ||
| 20260902223825 | 87 | 87 | 0.9 | 2.6 | 0.00 | 0.00 | 0.00 | ||
| 20260902223322 | 87 | 149 | 2.6 | 1.7 | 0.00 | 0.00 | 0.00 | ||
| 20260902222823 | 87 | 127 | 0.0 | 2.6 | 0.00 | 0.00 | 0.00 | ||
| 20260902222319 | 87 | 135 | 1.7 | 3.5 | 0.00 | 0.00 | 0.00 | ||
| 20260902221820 | 88 | 115 | 1.7 | 0.9 | 0.00 | 0.00 | 0.00 | ||
| 20260902221318 | 88 | 98 | 0.9 | 0.9 | 0.00 | 0.00 | 0.00 | ||
| 20260902220819 | 88 | 314 | 1.7 | 1.7 | 0.00 | 0.00 | 0.00 | ||
| 20260902220315 | 88 | 121 | 0.0 | 0.0 | 0.00 | 0.00 | 0.00 | ||
| 20260902215816 | 89 | 117 | 0.9 | 0.0 | 0.00 | 0.00 | 0.00 | ||
| 20260902215313 | 89 | 129 | 1.7 | 3.5 | 0.00 | 0.00 | 0.00 | ||
| 20260902214813 | 89 | 122 | 0.9 | 1.7 | 0.00 | 0.00 | 0.00 | ||
| 20260902213812 | 89 | 128 | 3.5 | 1.7 | 0.00 | 0.00 | 0.00 | ||
| 20260902213308 | 89 | 143 | 3.5 | 5.2 | 0.00 | 0.00 | 0.00 | ||
| 20260902212808 | 89 | 125 | 5.2 | 5.2 | 0.00 | 0.00 | 0.00 | ||
| 20260902212306 | 90 | 129 | 3.5 | 5.2 | 0.00 | 0.00 | 0.00 | ||
| 20260902211803 | 89 | 111 | 5.2 | 6.1 | 0.00 | 0.00 | 0.00 | ||
| 20260902211300 | 89 | 132 | 4.3 | 1.7 | 0.00 | 0.00 | 0.00 | ||
| 20260902210257 | 90 | 134 | 3.5 | 1.7 | 0.00 | 0.00 | 0.00 | ||
| 20260902205757 | 90 | 153 | 3.5 | 6.1 | 0.00 | 0.00 | 0.00 | ||
| 20260902205253 | 90 | 125 | 4.3 | 1.7 | 0.00 | 0.00 | 0.00 | ||
| 20260902204754 | 91 | 108 | 4.3 | 2.6 | 0.00 | 0.00 | 0.00 | ||
| 20260902204251 | 91 | 120 | 3.5 | 5.2 | 0.00 | 0.00 | 0.00 | ||
| 20260902203249 | 91 | 136 | 2.6 | 3.5 | 0.00 | 0.00 | 0.00 | ||
| 20260902202750 | 90 | 135 | 3.5 | 5.2 | 0.00 | 0.00 | 0.00 | ||
| 20260902202246 | 91 | 131 | 5.2 | 3.5 | 0.00 | 0.00 | 0.00 | ||
| 20260902201747 | 91 | 145 | 3.5 | 6.1 | 0.00 | 0.00 | 0.00 | ||
| 20260902201243 | 91 | 170 | 3.5 | 1.7 | 0.00 | 0.00 | 0.00 | ||
| 20260902200743 | 90 | 122 | 4.3 | 2.6 | 0.00 | 0.00 | 0.00 | ||
| 20260902200239 | 91 | 131 | 2.6 | 4.3 | 0.00 | 0.00 | 0.00 | ||
| 20260902195740 | 91 | 68 | 4.3 | 7.8 | 0.00 | 0.00 | 0.00 | ||
| 20260902195237 | 91 | 153 | 1.7 | 1.7 | 0.00 | 0.00 | 0.00 | ||
| 20260902194235 | 90 | 114 | 5.2 | 7.8 | 0.00 | 0.00 | 0.00 | ||
| 20260902193735 | 91 | 152 | 3.5 | 5.2 | 0.00 | 0.00 | 0.00 | ||
| 20260902193231 | 92 | 150 | 3.5 | 4.3 | 0.00 | 0.00 | 0.00 | ||
| 20260902192731 | 91 | 139 | 5.2 | 4.3 | 0.00 | 0.00 | 0.00 | ||
| 20260902192229 | 91 | 120 | 4.3 | 4.3 | 0.00 | 0.00 | 0.00 | ||
| 20260902191730 | 92 | 136 | 5.2 | 4.3 | 0.00 | 0.00 | 0.00 | ||
| 20260902191228 | 92 | 117 | 4.3 | 6.1 | 0.00 | 0.00 | 0.00 | ||
| 20260902190729 | 93 | 149 | 5.2 | 5.2 | 0.00 | 0.00 | 0.00 | ||
| 20260902190227 | 92 | 134 | 0.9 | 1.7 | 0.00 | 0.00 | 0.00 | ||
| 20260902184727 | 93 | 215 | 0.9 | 0.0 | 0.00 | 0.00 | 0.00 | ||
| 20260902184220 | 92 | 139 | 2.6 | 3.5 | 0.00 | 0.00 | 0.00 | ||
| 20260902183720 | 92 | 153 | 2.6 | 2.6 | 0.00 | 0.00 | 0.00 | ||
| 20260902183217 | 93 | 110 | 1.7 | 1.7 | 0.00 | 0.00 | 0.00 | ||
| 20260902182216 | 92 | 56 | 0.0 | 0.0 | 0.00 | 0.00 | 0.00 | ||
| 20260902181215 | 92 | 104 | 1.7 | 1.7 | 0.00 | 0.00 | 0.00 | ||
| 20260902180716 | 92 | 83 | 2.6 | 1.7 | 0.00 | 0.00 | 0.00 | ||
| 20260902180214 | 92 | 152 | 0.0 | 0.0 | 0.00 | 0.00 | 0.00 | ||
| 20260902175715 | 92 | 100 | 0.0 | 0.0 | 0.00 | 0.00 | 0.00 | ||
| 20260902174714 | 92 | 86 | 2.6 | 2.6 | 0.00 | 0.00 | 0.00 | ||
| 20260902174212 | 90 | 89 | 3.5 | 1.7 | 0.00 | 0.00 | 0.00 | ||
| 20260902173713 | 91 | 166 | 4.3 | 3.5 | 0.00 | 0.00 | 0.00 | ||
| 20260902172712 | 92 | 149 | 4.3 | 5.2 | 0.00 | 0.00 | 0.00 |